| time (UTC) | temp F | wind direction | speed MPH | gust MPH | rain 1hr in | rain 24hr in | rain mn in | humidity % | barometer mb |
| 20260905162642 | 89 | 146 | 3.0 | 5.0 | 0.00 | 0.00 | 0.00 | 80 | |
| 20260905162140 | 88 | 115 | 2.0 | 9.0 | 0.00 | 0.00 | 0.00 | 79 | |
| 20260905161643 | 88 | 209 | 1.0 | 8.0 | 0.00 | 0.00 | 0.00 | 82 | |
| 20260905161143 | 88 | 139 | 6.0 | 9.0 | 0.00 | 0.00 | 0.00 | 81 | |
| 20260905160642 | 87 | 130 | 8.0 | 11.0 | 0.00 | 0.00 | 0.00 | 79 | |
| 20260905160142 | 87 | 142 | 6.0 | 11.0 | 0.00 | 0.00 | 0.00 | 80 | |
| 20260905155642 | 87 | 150 | 5.0 | 10.0 | 0.00 | 0.00 | 0.00 | 81 | |
| 20260905155142 | 86 | 142 | 6.0 | 14.0 | 0.00 | 0.00 | 0.00 | 82 | |
| 20260905153642 | 85 | 142 | 5.0 | 8.0 | 0.00 | 0.00 | 0.00 | 88 | |
| 20260905153142 | 84 | 149 | 3.0 | 7.0 | 0.00 | 0.00 | 0.00 | 87 | |
| 20260905152642 | 84 | 140 | 3.0 | 9.0 | 0.00 | 0.00 | 0.00 | 89 | |
| 20260905152141 | 83 | 102 | 7.0 | 10.0 | 0.00 | 0.00 | 0.00 | 88 | |
| 20260905151642 | 83 | 153 | 4.0 | 12.0 | 0.00 | 0.00 | 0.00 | 89 | |
| 20260905151142 | 83 | 157 | 2.0 | 12.0 | 0.00 | 0.00 | 0.00 | 89 | |
| 20260905150642 | 83 | 222 | 2.0 | 9.0 | 0.00 | 0.00 | 0.00 | 91 | |
| 20260905145642 | 82 | 144 | 8.0 | 11.0 | 0.00 | 0.00 | 0.00 | 92 | |
| 20260905145142 | 82 | 139 | 6.0 | 15.0 | 0.00 | 0.00 | 0.00 | 92 | |
| 20260905144642 | 81 | 98 | 3.0 | 14.0 | 0.00 | 0.00 | 0.00 | 93 | |
| 20260905144143 | 81 | 130 | 7.0 | 12.0 | 0.00 | 0.00 | 0.00 | 93 | |
| 20260905143642 | 81 | 109 | 5.0 | 11.0 | 0.00 | 0.00 | 0.00 | 94 | |
| 20260905143142 | 81 | 108 | 5.0 | 10.0 | 0.00 | 0.00 | 0.00 | 93 | |
| 20260905142642 | 81 | 147 | 7.0 | 11.0 | 0.00 | 0.00 | 0.00 | 92 | |
| 20260905142141 | 81 | 146 | 6.0 | 10.0 | 0.00 | 0.00 | 0.00 | 93 | |
| 20260905141642 | 81 | 137 | 3.0 | 12.0 | 0.00 | 0.00 | 0.00 | 95 | |
| 20260905141142 | 80 | 120 | 9.0 | 15.0 | 0.00 | 0.00 | 0.00 | 95 | |
| 20260905140642 | 80 | 181 | 7.0 | 16.0 | 0.00 | 0.00 | 0.00 | 95 | |
| 20260905140142 | 80 | 104 | 5.0 | 9.0 | 0.00 | 0.00 | 0.00 | 96 | |
| 20260905135142 | 79 | 178 | 5.0 | 15.0 | 0.00 | 0.00 | 0.00 | 98 | |
| 20260905134642 | 79 | 133 | 4.0 | 12.0 | 0.00 | 0.00 | 0.00 | 99 | |
| 20260905134142 | 78 | 105 | 7.0 | 16.0 | 0.00 | 0.00 | 0.00 | 99 | |
| 20260905133142 | 78 | 118 | 6.0 | 13.0 | 0.00 | 0.00 | 0.00 | 100 | |
| 20260905132642 | 77 | 125 | 6.0 | 13.0 | 0.00 | 0.00 | 0.00 | 100 | |
| 20260905132141 | 77 | 109 | 11.0 | 15.0 | 0.00 | 0.00 | 0.00 | 100 | |
| 20260905131642 | 77 | 81 | 4.0 | 8.0 | 0.00 | 0.00 | 0.00 | 100 | |
| 20260905131142 | 76 | 60 | 2.0 | 8.0 | 0.00 | 0.00 | 0.00 | 100 | |
| 20260905130642 | 76 | 104 | 5.0 | 12.0 | 0.00 | 0.00 | 0.00 | 100 | |
| 20260905130142 | 76 | 95 | 7.0 | 12.0 | 0.00 | 0.00 | 0.00 | 100 | |
| 20260905125642 | 75 | 60 | 0.0 | 8.0 | 0.00 | 0.00 | 0.00 | 100 | |
| 20260905124642 | 75 | 53 | 0.0 | 10.0 | 0.00 | 0.00 | 0.00 | 100 | |
| 20260905124142 | 75 | 140 | 5.0 | 10.0 | 0.00 | 0.00 | 0.00 | 100 | |
| 20260905123642 | 74 | 81 | 4.0 | 6.0 | 0.00 | 0.00 | 0.00 | 100 | |
| 20260905123142 | 74 | 50 | 0.0 | 8.0 | 0.00 | 0.00 | 0.00 | 100 | |
| 20260905122642 | 74 | 32 | 2.0 | 11.0 | 0.00 | 0.00 | 0.00 | 100 | |
| 20260905122141 | 74 | 85 | 4.0 | 4.0 | 0.00 | 0.00 | 0.00 | 100 | |
| 20260905121642 | 74 | 184 | 0.0 | 0.0 | 0.00 | 0.00 | 0.00 | 100 | |
| 20260905121142 | 74 | 184 | 0.0 | 0.0 | 0.00 | 0.00 | 0.00 | 100 | |
| 20260905120142 | 74 | 184 | 0.0 | 0.0 | 0.00 | 0.00 | 0.00 | 100 | |
| 20260905115642 | 74 | 184 | 0.0 | 0.0 | 0.00 | 0.00 | 0.00 | 100 | |
| 20260905115142 | 74 | 184 | 0.0 | 0.0 | 0.00 | 0.00 | 0.00 | 100 | |
| 20260905114642 | 74 | 184 | 0.0 | 0.0 | 0.00 | 0.00 | 0.00 | 100 | |
| 20260905114142 | 74 | 184 | 0.0 | 0.0 | 0.00 | 0.00 | 0.00 | 100 | |
| 20260905113142 | 74 | 184 | 0.0 | 0.0 | 0.00 | 0.00 | 0.00 | 100 | |
| 20260905112642 | 74 | 184 | 0.0 | 0.0 | 0.00 | 0.00 | 0.00 | 100 | |
| 20260905112141 | 74 | 184 | 0.0 | 0.0 | 0.00 | 0.00 | 0.00 | 100 | |
| 20260905111142 | 74 | 184 | 0.0 | 0.0 | 0.00 | 0.00 | 0.00 | 100 | |
| 20260905110642 | 74 | 184 | 0.0 | 0.0 | 0.00 | 0.00 | 0.00 | 100 | |
| 20260905110142 | 74 | 184 | 0.0 | 0.0 | 0.00 | 0.00 | 0.00 | 100 | |
| 20260905105642 | 74 | 184 | 0.0 | 0.0 | 0.00 | 0.00 | 0.00 | 100 | |
| 20260905105143 | 74 | 184 | 0.0 | 0.0 | 0.00 | 0.00 | 0.00 | 100 | |
| 20260905104643 | 74 | 184 | 0.0 | 0.0 | 0.00 | 0.00 | 0.00 | 100 | |
| 20260905104143 | 74 | 184 | 0.0 | 0.0 | 0.00 | 0.00 | 0.00 | 100 | |
| 20260905103643 | 74 | 184 | 0.0 | 0.0 | 0.00 | 0.00 | 0.00 | 100 | |
| 20260905103143 | 74 | 184 | 0.0 | 0.0 | 0.00 | 0.00 | 0.00 | 100 | |
| 20260905102644 | 75 | 184 | 0.0 | 0.0 | 0.00 | 0.00 | 0.00 | 100 | |
| 20260905102141 | 75 | 184 | 0.0 | 0.0 | 0.00 | 0.00 | 0.00 | 100 | |
| 20260905101643 | 75 | 184 | 0.0 | 0.0 | 0.00 | 0.00 | 0.00 | 100 | |
| 20260905101143 | 75 | 184 | 0.0 | 0.0 | 0.00 | 0.00 | 0.00 | 100 | |
| 20260905100143 | 75 | 184 | 0.0 | 0.0 | 0.00 | 0.00 | 0.00 | 100 | |
| 20260905095143 | 75 | 184 | 0.0 | 0.0 | 0.00 | 0.00 | 0.00 | 100 | |
| 20260905094643 | 76 | 184 | 0.0 | 0.0 | 0.00 | 0.00 | 0.00 | 100 | |
| 20260905094143 | 76 | 184 | 0.0 | 0.0 | 0.00 | 0.00 | 0.00 | 100 | |
| 20260905093643 | 76 | 184 | 0.0 | 0.0 | 0.00 | 0.00 | 0.00 | 100 | |
| 20260905092643 | 76 | 184 | 0.0 | 0.0 | 0.00 | 0.00 | 0.00 | 100 | |
| 20260905092142 | 76 | 184 | 0.0 | 0.0 | 0.00 | 0.00 | 0.00 | 100 | |
| 20260905091643 | 76 | 184 | 0.0 | 0.0 | 0.00 | 0.00 | 0.00 | 100 | |
| 20260905090143 | 76 | 184 | 0.0 | 0.0 | 0.00 | 0.00 | 0.00 | 100 | |
| 20260905085643 | 76 | 184 | 0.0 | 0.0 | 0.00 | 0.00 | 0.00 | 100 | |
| 20260905084643 | 76 | 184 | 0.0 | 0.0 | 0.00 | 0.00 | 0.00 | 100 | |
| 20260905084143 | 76 | 184 | 0.0 | 0.0 | 0.00 | 0.00 | 0.00 | 100 | |
| 20260905083643 | 76 | 184 | 0.0 | 0.0 | 0.00 | 0.00 | 0.00 | 100 | |
| 20260905083143 | 76 | 184 | 0.0 | 0.0 | 0.00 | 0.00 | 0.00 | 100 | |
| 20260905082643 | 76 | 184 | 0.0 | 0.0 | 0.00 | 0.00 | 0.00 | 100 | |
| 20260905082142 | 76 | 184 | 0.0 | 0.0 | 0.00 | 0.00 | 0.00 | 100 | |
| 20260905081643 | 76 | 184 | 0.0 | 2.0 | 0.00 | 0.00 | 0.00 | 100 | |
| 20260905080643 | 76 | 220 | 0.0 | 3.0 | 0.00 | 0.00 | 0.00 | 100 | |
| 20260905080143 | 75 | 216 | 1.0 | 3.0 | 0.00 | 0.00 | 0.00 | 100 | |
| 20260905075643 | 75 | 219 | 0.0 | 1.0 | 0.00 | 0.00 | 0.00 | 100 | |
| 20260905075143 | 75 | 239 | 0.0 | 3.0 | 0.00 | 0.00 | 0.00 | 100 | |
| 20260905073143 | 76 | 215 | 0.0 | 0.0 | 0.00 | 0.00 | 0.00 | 100 | |
| 20260905072643 | 76 | 215 | 0.0 | 0.0 | 0.00 | 0.00 | 0.00 | 100 | |
| 20260905072142 | 76 | 215 | 0.0 | 0.0 | 0.00 | 0.00 | 0.00 | 100 | |
| 20260905070143 | 76 | 215 | 0.0 | 0.0 | 0.00 | 0.00 | 0.00 | 100 | |
| 20260905065643 | 76 | 215 | 0.0 | 0.0 | 0.00 | 0.00 | 0.00 | 100 | |
| 20260905065143 | 76 | 215 | 0.0 | 0.0 | 0.00 | 0.00 | 0.00 | 100 | |
| 20260905064643 | 76 | 215 | 0.0 | 0.0 | 0.00 | 0.00 | 0.00 | 100 | |
| 20260905064143 | 76 | 215 | 0.0 | 0.0 | 0.00 | 0.00 | 0.00 | 100 | |
| 20260905062142 | 76 | 215 | 0.0 | 0.0 | 0.00 | 0.00 | 0.00 | 100 | |
| 20260905061643 | 76 | 215 | 0.0 | 0.0 | 0.00 | 0.00 | 0.00 | 100 | |
| 20260905061143 | 76 | 215 | 0.0 | 0.0 | 0.00 | 0.00 | 0.00 | 100 | |
| 20260905060143 | 77 | 215 | 0.0 | 0.0 | 0.00 | 0.00 | 0.00 | 100 | |
| 20260905055143 | 77 | 215 | 0.0 | 0.0 | 0.00 | 0.00 | 0.00 | 100 | |
| 20260905054643 | 77 | 215 | 0.0 | 0.0 | 0.00 | 0.00 | 0.00 | 100 | |
| 20260905054143 | 77 | 215 | 0.0 | 0.0 | 0.00 | 0.00 | 0.00 | 100 | |
| 20260905053643 | 77 | 215 | 0.0 | 0.0 | 0.00 | 0.00 | 0.00 | 100 | |
| 20260905053144 | 77 | 215 | 0.0 | 0.0 | 0.00 | 0.00 | 0.00 | 100 | |
| 20260905052643 | 77 | 215 | 0.0 | 0.0 | 0.00 | 0.00 | 0.00 | 100 | |
| 20260905052142 | 77 | 215 | 0.0 | 0.0 | 0.00 | 0.00 | 0.00 | 100 | |
| 20260905051644 | 77 | 215 | 0.0 | 0.0 | 0.00 | 0.00 | 0.00 | 100 | |
| 20260905051144 | 77 | 215 | 0.0 | 0.0 | 0.00 | 0.00 | 0.00 | 100 | |
| 20260905050644 | 77 | 215 | 0.0 | 0.0 | 0.00 | 0.00 | 0.00 | 100 | |
| 20260905050144 | 77 | 215 | 0.0 | 0.0 | 0.00 | 0.00 | 0.00 | 100 | |
| 20260905045644 | 78 | 215 | 0.0 | 0.0 | 0.00 | 0.00 | 0.00 | 100 | |
| 20260905045144 | 78 | 215 | 0.0 | 0.0 | 0.00 | 0.00 | 0.00 | 100 | |
| 20260905044144 | 78 | 215 | 0.0 | 0.0 | 0.00 | 0.00 | 0.00 | 100 | |
| 20260905043144 | 78 | 215 | 0.0 | 0.0 | 0.00 | 0.00 | 0.00 | 100 | |
| 20260905042142 | 78 | 215 | 0.0 | 0.0 | 0.00 | 0.00 | 0.00 | 100 | |
| 20260905041644 | 78 | 215 | 0.0 | 0.0 | 0.00 | 0.00 | 0.00 | 100 | |
| 20260905040644 | 78 | 215 | 0.0 | 0.0 | 0.00 | 0.00 | 0.00 | 100 | |
| 20260905040144 | 78 | 215 | 0.0 | 0.0 | 0.00 | 0.00 | 0.00 | 100 | |
| 20260905035144 | 78 | 215 | 0.0 | 0.0 | 0.00 | 0.00 | 0.00 | 100 | |
| 20260905035126 | 78 | 215 | 0.0 | 0.0 | 0.00 | 0.00 | 0.00 | 100 | |
| 20260905034644 | 78 | 215 | 0.0 | 0.0 | 0.00 | 0.00 | 0.00 | 100 | |
| 20260905034144 | 78 | 215 | 0.0 | 0.0 | 0.00 | 0.00 | 0.00 | 100 | |
| 20260905033644 | 78 | 215 | 0.0 | 0.0 | 0.00 | 0.00 | 0.00 | 100 | |
| 20260905033144 | 78 | 215 | 0.0 | 0.0 | 0.00 | 0.00 | 0.00 | 100 | |
| 20260905032644 | 78 | 215 | 0.0 | 0.0 | 0.00 | 0.00 | 0.00 | 100 | |
| 20260905032143 | 79 | 215 | 0.0 | 0.0 | 0.00 | 0.00 | 0.00 | 100 | |
| 20260905031644 | 79 | 215 | 0.0 | 0.0 | 0.00 | 0.00 | 0.00 | 100 | |
| 20260905031144 | 79 | 215 | 0.0 | 0.0 | 0.00 | 0.00 | 0.00 | 100 | |
| 20260905030644 | 79 | 215 | 0.0 | 0.0 | 0.00 | 0.00 | 0.00 | 100 | |
| 20260905030144 | 79 | 215 | 0.0 | 0.0 | 0.00 | 0.00 | 0.00 | 100 | |
| 20260905025644 | 79 | 215 | 0.0 | 0.0 | 0.00 | 0.00 | 0.00 | 100 | |
| 20260905025144 | 79 | 215 | 0.0 | 0.0 | 0.00 | 0.00 | 0.00 | 100 | |
| 20260905024644 | 79 | 215 | 0.0 | 0.0 | 0.00 | 0.00 | 0.00 | 100 | |
| 20260905024144 | 79 | 215 | 0.0 | 0.0 | 0.00 | 0.00 | 0.00 | 100 | |
| 20260905023644 | 79 | 215 | 0.0 | 0.0 | 0.00 | 0.00 | 0.00 | 100 | |
| 20260905022644 | 80 | 215 | 0.0 | 0.0 | 0.00 | 0.00 | 0.00 | 100 | |
| 20260905022143 | 80 | 215 | 0.0 | 0.0 | 0.00 | 0.00 | 0.00 | 100 | |
| 20260905021644 | 80 | 215 | 0.0 | 0.0 | 0.00 | 0.00 | 0.00 | 100 | |
| 20260905021144 | 80 | 215 | 0.0 | 0.0 | 0.00 | 0.00 | 0.00 | 100 | |
| 20260905020644 | 80 | 215 | 0.0 | 0.0 | 0.00 | 0.00 | 0.00 | 100 | |
| 20260905013144 | 82 | 215 | 0.0 | 0.0 | 0.00 | 0.00 | 0.00 | 100 | |
| 20260905012644 | 82 | 215 | 0.0 | 0.0 | 0.00 | 0.00 | 0.00 | 100 | |
| 20260905012143 | 82 | 215 | 0.0 | 0.0 | 0.00 | 0.00 | 0.00 | 100 | |
| 20260905011644 | 82 | 215 | 0.0 | 0.0 | 0.00 | 0.00 | 0.00 | 100 | |
| 20260905010644 | 82 | 215 | 0.0 | 0.0 | 0.00 | 0.00 | 0.00 | 100 | |
| 20260905005644 | 83 | 215 | 0.0 | 0.0 | 0.00 | 0.00 | 0.00 | 100 | |
| 20260905005144 | 83 | 215 | 0.0 | 0.0 | 0.00 | 0.00 | 0.00 | 100 | |
| 20260905004644 | 83 | 215 | 0.0 | 0.0 | 0.00 | 0.00 | 0.00 | 100 | |
| 20260905004144 | 83 | 215 | 0.0 | 0.0 | 0.00 | 0.00 | 0.00 | 100 | |
| 20260905003644 | 84 | 215 | 0.0 | 0.0 | 0.00 | 0.00 | 0.00 | 100 | |
| 20260905003144 | 84 | 215 | 0.0 | 0.0 | 0.00 | 0.00 | 0.00 | 100 | |
| 20260905002644 | 85 | 215 | 0.0 | 0.0 | 0.00 | 0.00 | 0.00 | 99 | |
| 20260905002143 | 85 | 215 | 0.0 | 0.0 | 0.00 | 0.00 | 0.00 | 99 | |
| 20260905001644 | 86 | 215 | 0.0 | 0.0 | 0.00 | 0.00 | 0.00 | 98 | |
| 20260905001144 | 86 | 215 | 0.0 | 0.0 | 0.00 | 0.00 | 0.00 | 98 | |
| 20260905000144 | 88 | 215 | 0.0 | 0.0 | 0.00 | 0.00 | 0.00 | 96 | |
| 20260904235144 | 89 | 215 | 0.0 | 0.0 | 0.00 | 0.00 | 0.00 | 95 | |
| 20260904234145 | 90 | 215 | 0.0 | 0.0 | 0.00 | 0.00 | 0.00 | 91 | |
| 20260904233145 | 93 | 215 | 0.0 | 0.0 | 0.00 | 0.00 | 0.00 | 81 | |
| 20260904232645 | 94 | 215 | 0.0 | 0.0 | 0.00 | 0.00 | 0.00 | 79 | |
| 20260904232143 | 95 | 215 | 0.0 | 0.0 | 0.00 | 0.00 | 0.00 | 77 | |
| 20260904231645 | 96 | 215 | 0.0 | 0.0 | 0.00 | 0.00 | 0.00 | 75 | |
| 20260904231146 | 96 | 215 | 0.0 | 3.0 | 0.00 | 0.00 | 0.00 | 73 | |
| 20260904230645 | 96 | 187 | 0.0 | 2.0 | 0.00 | 0.00 | 0.00 | 72 | |
| 20260904230145 | 96 | 180 | 0.0 | 3.0 | 0.00 | 0.00 | 0.00 | 70 | |
| 20260904225645 | 97 | 199 | 0.0 | 2.0 | 0.00 | 0.00 | 0.00 | 70 | |
| 20260904225146 | 97 | 213 | 2.0 | 4.0 | 0.00 | 0.00 | 0.00 | 70 | |
| 20260904224646 | 97 | 262 | 0.0 | 3.0 | 0.00 | 0.00 | 0.00 | 71 | |
| 20260904223645 | 97 | 236 | 3.0 | 4.0 | 0.00 | 0.00 | 0.00 | 70 | |
| 20260904223145 | 97 | 215 | 1.0 | 4.0 | 0.00 | 0.00 | 0.00 | 69 | |
| 20260904222645 | 97 | 261 | 2.0 | 5.0 | 0.00 | 0.00 | 0.00 | 70 | |
| 20260904222144 | 97 | 237 | 1.0 | 5.0 | 0.00 | 0.00 | 0.00 | 69 | |
| 20260904214146 | 96 | 212 | 1.0 | 4.0 | 0.00 | 0.00 | 0.00 | 69 | |
| 20260904213645 | 96 | 281 | 0.0 | 5.0 | 0.00 | 0.00 | 0.00 | 69 | |
| 20260904212144 | 96 | 232 | 2.0 | 5.0 | 0.00 | 0.00 | 0.00 | 70 | |
| 20260904210645 | 97 | 248 | 0.0 | 5.0 | 0.00 | 0.00 | 0.00 | 68 | |
| 20260904210145 | 97 | 240 | 0.0 | 8.0 | 0.00 | 0.00 | 0.00 | 68 | |
| 20260904205645 | 97 | 312 | 3.0 | 7.0 | 0.00 | 0.00 | 0.00 | 64 | |
| 20260904205145 | 98 | 220 | 3.0 | 6.0 | 0.00 | 0.00 | 0.00 | 67 | |
| 20260904204646 | 98 | 239 | 6.0 | 6.0 | 0.00 | 0.00 | 0.00 | 66 | |
| 20260904204146 | 98 | 225 | 0.0 | 8.0 | 0.00 | 0.00 | 0.00 | 65 | |
| 20260904203645 | 98 | 275 | 4.0 | 6.0 | 0.00 | 0.00 | 0.00 | 66 | |
| 20260904202645 | 98 | 278 | 4.0 | 6.0 | 0.00 | 0.00 | 0.00 | 65 | |
| 20260904202144 | 98 | 227 | 2.0 | 8.0 | 0.00 | 0.00 | 0.00 | 67 | |
| 20260904201645 | 97 | 213 | 5.0 | 9.0 | 0.00 | 0.00 | 0.00 | 68 | |
| 20260904200645 | 97 | 225 | 3.0 | 7.0 | 0.00 | 0.00 | 0.00 | 69 | |
| 20260904200145 | 96 | 202 | 5.0 | 6.0 | 0.00 | 0.00 | 0.00 | 70 | |
| 20260904195646 | 96 | 216 | 4.0 | 8.0 | 0.00 | 0.00 | 0.00 | 70 | |
| 20260904195145 | 95 | 265 | 4.0 | 9.0 | 0.00 | 0.00 | 0.00 | 70 | |
| 20260904193645 | 96 | 284 | 2.0 | 6.0 | 0.00 | 0.00 | 0.00 | 71 | |
| 20260904192645 | 96 | 281 | 4.0 | 7.0 | 0.00 | 0.00 | 0.00 | 70 | |
| 20260904192144 | 97 | 278 | 4.0 | 8.0 | 0.00 | 0.00 | 0.00 | 69 | |
| 20260904191145 | 96 | 244 | 1.0 | 7.0 | 0.00 | 0.00 | 0.00 | 70 | |
| 20260904190645 | 96 | 216 | 0.0 | 8.0 | 0.00 | 0.00 | 0.00 | 70 | |
| 20260904185145 | 95 | 225 | 4.0 | 8.0 | 0.00 | 0.00 | 0.00 | 74 | |
| 20260904184645 | 95 | 279 | 6.0 | 10.0 | 0.00 | 0.00 | 0.00 | 71 | |
| 20260904184145 | 95 | 198 | 7.0 | 9.0 | 0.00 | 0.00 | 0.00 | 73 | |
| 20260904183645 | 95 | 225 | 3.0 | 8.0 | 0.00 | 0.00 | 0.00 | 73 | |
| 20260904183147 | 94 | 253 | 3.0 | 9.0 | 0.00 | 0.00 | 0.00 | 73 | |
| 20260904182647 | 94 | 243 | 3.0 | 10.0 | 0.00 | 0.00 | 0.00 | 75 | |
| 20260904182144 | 94 | 237 | 6.0 | 8.0 | 0.00 | 0.00 | 0.00 | 75 | |
| 20260904181145 | 94 | 289 | 3.0 | 9.0 | 0.00 | 0.00 | 0.00 | 75 | |
| 20260904180645 | 94 | 225 | 7.0 | 9.0 | 0.00 | 0.00 | 0.00 | 78 | |
| 20260904180146 | 93 | 220 | 2.0 | 11.0 | 0.00 | 0.00 | 0.00 | 78 | |
| 20260904175646 | 93 | 217 | 2.0 | 9.0 | 0.00 | 0.00 | 0.00 | 78 | |
| 20260904174646 | 93 | 338 | 2.0 | 8.0 | 0.00 | 0.00 | 0.00 | 80 | |
| 20260904174147 | 93 | 253 | 3.0 | 9.0 | 0.00 | 0.00 | 0.00 | 80 | |
| 20260904173147 | 93 | 305 | 3.0 | 7.0 | 0.00 | 0.00 | 0.00 | 81 | |
| 20260904172144 | 92 | 239 | 2.0 | 7.0 | 0.00 | 0.00 | 0.00 | 80 | |
| 20260904171646 | 92 | 295 | 5.0 | 6.0 | 0.00 | 0.00 | 0.00 | 81 | |
| 20260904171146 | 92 | 278 | 1.0 | 8.0 | 0.00 | 0.00 | 0.00 | 82 | |
| 20260904170646 | 92 | 305 | 4.0 | 11.0 | 0.00 | 0.00 | 0.00 | 80 | |
| 20260904170146 | 92 | 227 | 4.0 | 8.0 | 0.00 | 0.00 | 0.00 | 83 | |
| 20260904165646 | 92 | 255 | 6.0 | 7.0 | 0.00 | 0.00 | 0.00 | 83 |